Date String (YYYY-MM-DD hh:mm:ss) UTC,Instrument flags,absolute air pressure of the measurement (hPa),sample flow rate (lpm),inlet stack bypass flow (lpm),air temperature of the measurement (°C),ambient temperature measured by the external sensor (°C),aerosol sample conditioner tube jacket temperature (°C),OPC LED temperature (°C),internal box temperature (°C),relative humidity of the measurement (%),span deviation,mass concentration of particles derived from Lorenz-Mie calculation of OPC scattering (μg/m³),mass concentration of particles derived from Lorenz-Mie calculation of OPC scattering (μg/m³),mass concentration of particles derived from Lorenz-Mie calculation of OPC scattering (μg/m³)
DateTimeUTC,F1_M11,P_M11,Q1_M11,Q2_M11,T1_M11,T2_M11,T3_M11,T4_M11,T5_M11,U1_M11,ZSPAN_M11,X0_M11,X2_M11,X1_M11
2024-06-14 13:00:00,SystemResetWarning,0833.2,5.00,000.00,030.8,030.2,000.0,039.0,032.6,035.2,0000.7,0039.55,0010.41,0007.17
2024-06-14 13:01:00,SystemResetWarning,0833.3,5.00,000.00,030.8,030.3,000.0,039.0,032.6,035.1,0000.2,0039.56,0010.41,0007.17
2024-06-14 13:02:00,SystemResetWarning,0833.2,5.00,000.00,030.8,030.3,000.0,039.1,032.6,035.0,0000.4,0038.34,0010.43,0007.18
2024-06-14 13:03:00,SystemResetWarning,0833.2,4.98,000.00,030.9,030.3,000.0,039.1,032.6,035.1,0000.4,0036.01,0010.45,0007.18
2024-06-14 13:04:00,SystemResetWarning,0833.2,5.01,000.00,030.9,030.3,000.0,039.1,032.6,034.8,0000.6,0033.54,0010.36,0007.18
2024-06-14 13:05:00,SystemResetWarning,0833.2,5.00,000.00,030.9,030.3,000.0,039.1,032.6,034.7,0001.0,0033.26,0010.34,0007.18
2024-06-14 13:06:00,SystemResetWarning,0833.2,5.00,000.00,030.9,030.4,000.0,039.2,032.7,034.7,0001.2,0031.91,0010.32,0007.19
2024-06-14 13:07:00,SystemResetWarning,0833.1,5.01,000.00,031.0,030.4,000.0,039.2,032.7,034.6,0001.2,0033.64,0010.35,0007.20
2024-06-14 13:08:00,SystemResetWarning,0833.2,5.00,000.00,031.0,030.4,000.0,039.2,032.7,034.8,0001.1,0033.84,0010.35,0007.20
2024-06-14 13:09:00,SystemResetWarning,0833.1,5.00,000.00,031.0,030.4,000.0,039.2,032.7,034.7,0001.2,0034.58,0010.44,0007.21
2024-06-14 13:10:00,SystemResetWarning,0833.2,4.99,000.00,031.0,030.4,000.0,039.3,032.7,034.6,0001.2,0033.19,0010.44,0007.21
2024-06-14 13:11:00,SystemResetWarning,0833.2,4.99,000.00,031.0,030.5,000.0,039.3,032.7,034.5,0000.9,0033.55,0010.44,0007.23
2024-06-14 13:12:00,SystemResetWarning,0833.2,5.00,000.00,031.1,030.5,000.0,039.3,032.8,034.3,0000.9,0034.03,0010.50,0007.25
2024-06-14 13:13:00,SystemResetWarning,0833.2,5.00,000.00,031.1,030.5,000.0,039.3,032.8,034.1,0000.8,0033.87,0010.46,0007.27
2024-06-14 13:14:00,SystemResetWarning,0833.2,5.01,000.00,031.1,030.5,000.0,039.3,032.8,034.1,0000.7,0035.21,0010.53,0007.27
2024-06-14 13:15:00,SystemResetWarning,0833.2,5.01,000.00,031.1,030.5,000.0,039.4,032.8,034.0,0000.9,0035.87,0010.57,0007.29
2024-06-14 13:16:00,SystemResetWarning,0833.2,5.00,000.00,031.1,030.5,000.0,039.4,032.8,034.2,0000.5,0035.34,0010.55,0007.28
2024-06-14 13:17:00,SystemResetWarning,0833.2,4.99,000.00,031.1,030.6,000.0,039.4,032.8,034.3,0000.4,0035.66,0010.50,0007.27
2024-06-14 13:18:00,SystemResetWarning,0833.2,4.99,000.00,031.2,030.6,000.0,039.4,032.8,034.2,0000.5,0034.95,0010.46,0007.23
2024-06-14 13:19:00,SystemResetWarning,0833.1,4.99,000.00,031.0,029.2,000.0,039.5,032.1,034.3,0000.9,0036.87,0010.42,0007.23
2024-06-14 13:20:00,SystemResetWarning,0833.1,5.00,000.00,030.6,026.8,000.0,039.5,031.0,035.1,0000.8,0038.06,0010.34,0007.23
2024-06-14 13:21:00,SystemResetWarning,0833.0,5.00,000.00,030.2,026.1,000.0,039.4,030.5,036.1,0000.5,0042.27,0010.33,0007.25
2024-06-14 13:22:00,SystemResetWarning,0833.0,5.01,000.00,029.9,026.3,000.0,039.2,030.6,037.0,0000.7,0043.49,0010.34,0007.26
2024-06-14 13:23:00,SystemResetWarning,0833.0,5.00,000.00,029.9,026.8,000.0,039.0,030.8,036.8,0000.6,0045.73,0010.30,0007.27
2024-06-14 13:24:00,SystemResetWarning,0833.1,4.99,000.00,029.9,027.3,000.0,038.9,031.1,036.7,0000.4,0046.96,0010.31,0007.27
2024-06-14 13:25:00,SystemResetWarning,0833.0,5.02,000.00,029.9,027.8,000.0,038.8,031.3,036.7,-000.0,0045.50,0010.21,0007.28
2024-06-14 13:26:00,SystemResetWarning,0833.0,5.01,000.00,029.9,028.1,000.0,038.7,031.4,036.8,-000.5,0046.36,0010.26,0007.31
2024-06-14 13:27:00,SystemResetWarning,0833.2,4.99,000.00,029.9,028.4,000.0,038.7,031.5,036.9,-000.0,0045.19,0010.35,0007.33
2024-06-14 13:28:00,SystemResetWarning,0832.9,4.99,000.00,030.0,028.7,000.0,038.7,031.6,036.7,-000.1,0044.18,0010.44,0007.36
2024-06-14 13:29:00,SystemResetWarning,0833.2,5.00,000.00,030.0,028.9,000.0,038.6,031.7,036.5,-000.0,0043.57,0010.52,0007.40
2024-06-14 13:30:00,SystemResetWarning,0833.3,4.99,000.00,030.0,029.1,000.0,038.6,031.8,036.3,-000.7,0040.92,0010.63,0007.44
2024-06-14 13:31:00,SystemResetWarning,0832.9,5.00,000.00,030.1,029.2,000.0,038.6,031.8,036.2,-000.8,0040.60,0010.78,0007.49
2024-06-14 13:32:00,SystemResetWarning,0833.0,5.01,000.00,030.1,029.3,000.0,038.6,031.9,036.2,-000.5,0037.66,0010.86,0007.52
2024-06-14 13:33:00,SystemResetWarning,0833.0,5.01,000.00,030.2,029.4,000.0,038.6,031.9,036.1,-000.1,0037.02,0010.80,0007.54
2024-06-14 13:34:00,SystemResetWarning,0833.0,5.01,000.00,030.2,029.5,000.0,038.6,032.0,036.3,-000.1,0034.50,0010.78,0007.55
2024-06-14 13:35:00,SystemResetWarning,0833.1,5.00,000.00,030.3,029.6,000.0,038.6,032.0,036.4,0000.2,0033.59,0010.77,0007.56
2024-06-14 13:36:00,SystemResetWarning,0833.0,5.00,000.00,030.3,029.7,000.0,038.6,032.1,036.4,0000.3,0034.02,0010.76,0007.57
2024-06-14 13:37:00,SystemResetWarning,0832.8,5.00,000.00,030.3,029.7,000.0,038.6,032.1,036.0,0000.6,0033.99,0010.70,0007.56
2024-06-14 13:38:00,SystemResetWarning,0832.8,5.00,000.00,030.4,029.8,000.0,038.7,032.2,035.9,-000.0,0034.01,0010.66,0007.57
2024-06-14 13:39:00,SystemResetWarning,0832.9,4.99,000.00,030.4,029.9,000.0,038.7,032.2,036.0,0000.3,0035.08,0010.63,0007.59
2024-06-14 13:40:00,SystemResetWarning,0832.8,4.99,000.00,030.5,029.9,000.0,038.7,032.3,035.8,0000.2,0036.53,0010.57,0007.59
2024-06-14 13:41:00,SystemResetWarning,0832.8,5.00,000.00,030.5,030.0,000.0,038.7,032.3,035.8,0000.3,0038.40,0010.55,0007.61
2024-06-14 13:42:00,SystemResetWarning,0832.9,5.01,000.00,030.5,030.0,000.0,038.8,032.3,035.7,0000.8,0038.96,0010.52,0007.62
2024-06-14 13:43:00,SystemResetWarning,0833.2,5.01,000.00,030.6,030.0,000.0,038.8,032.4,035.4,0000.3,0038.68,0010.57,0007.64
2024-06-14 13:44:00,SystemResetWarning,0833.4,5.00,000.00,030.6,030.1,000.0,038.8,032.4,035.4,-000.2,0037.72,0010.64,0007.68
2024-06-14 13:45:00,SystemResetWarning,0833.4,5.00,000.00,030.7,030.1,000.0,038.9,032.4,035.8,0000.3,0037.63,0010.74,0007.71
2024-06-14 13:46:00,SystemResetWarning,0833.4,4.99,000.00,030.7,030.2,000.0,038.9,032.5,035.7,0000.9,0041.04,0010.83,0007.73
2024-06-14 13:47:00,SystemResetWarning,0833.3,4.99,000.00,030.7,030.2,000.0,038.9,032.5,035.4,0000.7,0042.33,0010.86,0007.74
2024-06-14 13:48:00,SystemResetWarning,0833.3,5.00,000.00,030.8,030.2,000.0,038.9,032.5,035.4,0001.1,0042.77,0010.90,0007.75
2024-06-14 13:49:00,SystemResetWarning,0833.4,5.01,000.00,030.8,030.2,000.0,039.0,032.5,035.5,0001.5,0043.52,0010.95,0007.73
2024-06-14 13:50:00,SystemResetWarning,0833.2,5.01,000.00,030.8,030.3,000.0,039.0,032.6,035.1,0000.9,0043.45,0011.02,0007.73
2024-06-14 13:51:00,SystemResetWarning,0833.0,5.00,000.00,030.9,030.3,000.0,039.0,032.6,035.1,0001.2,0042.81,0011.13,0007.75
2024-06-14 13:52:00,SystemResetWarning,0833.2,4.99,000.00,030.9,030.3,000.0,039.1,032.6,035.3,0001.4,0041.45,0011.19,0007.75
2024-06-14 13:53:00,SystemResetWarning,0833.1,5.00,000.00,030.9,030.4,000.0,039.1,032.6,035.0,0001.5,0041.55,0011.19,0007.73
2024-06-14 13:54:00,SystemResetWarning,0833.1,5.00,000.00,030.9,030.4,000.0,039.1,032.7,035.0,0001.8,0042.60,0011.09,0007.72
2024-06-14 13:55:00,SystemResetWarning,0833.1,5.00,000.00,031.0,030.4,000.0,039.2,032.7,035.2,0002.2,0044.68,0010.97,0007.68
2024-06-14 13:56:00,SystemResetWarning,0833.1,5.00,000.00,031.0,030.4,000.0,039.2,032.7,035.4,0001.9,0045.98,0010.96,0007.62
2024-06-14 13:57:00,SystemResetWarning,0833.4,5.01,000.00,031.0,030.5,000.0,039.2,032.7,035.1,0001.3,0044.11,0010.86,0007.60
2024-06-14 13:58:00,SystemResetWarning,0833.2,5.00,000.00,031.1,030.5,000.0,039.2,032.8,034.9,0001.3,0043.42,0010.92,0007.62
2024-06-14 13:59:00,SystemResetWarning,0833.2,4.99,000.00,031.1,030.5,000.0,039.3,032.8,035.0,0001.0,0042.76,0010.92,0007.63
